| time (UTC) | temp F | wind direction | speed knots | gust knots | rain 1hr in | rain 24hr in | rain mn in | humidity % | barometer mb |
| 20260905004526 | 69 | 157 | 2.6 | 5.2 | 0.00 | 0.02 | 0.02 | 53 | 1015.3 |
| 20260905004010 | 69 | 227 | 2.6 | 4.3 | 0.00 | 0.02 | 0.02 | 53 | 1014.9 |
| 20260905003514 | 69 | 240 | 0.9 | 5.2 | 0.00 | 0.02 | 0.02 | 54 | 1014.7 |
| 20260905003030 | 69 | 262 | 1.7 | 7.0 | 0.00 | 0.02 | 0.02 | 52 | 1014.5 |
| 20260905002515 | 70 | 221 | 2.6 | 7.0 | 0.00 | 0.02 | 0.02 | 52 | 1014.6 |
| 20260905002013 | 70 | 251 | 2.6 | 7.0 | 0.00 | 0.02 | 0.02 | 53 | 1014.5 |
| 20260905001528 | 70 | 126 | 2.6 | 8.7 | 0.00 | 0.02 | 0.02 | 54 | 1014.4 |
| 20260905001004 | 70 | 313 | 3.5 | 8.7 | 0.00 | 0.02 | 0.02 | 53 | 1014.3 |
| 20260905000507 | 70 | 305 | 0.9 | 7.8 | 0.00 | 0.02 | 0.02 | 55 | 1014.3 |
| 20260905000013 | 69 | 167 | 1.7 | 7.8 | 0.00 | 0.02 | 0.02 | 54 | 1014.3 |
| 20260904235508 | 70 | 222 | 3.5 | 7.8 | 0.00 | 0.02 | 0.02 | 54 | 1014.3 |
| 20260904235008 | 70 | 308 | 1.7 | 7.8 | 0.00 | 0.02 | 0.02 | 53 | 1014.3 |
| 20260904234518 | 70 | 234 | 1.7 | 6.1 | 0.00 | 0.02 | 0.02 | 53 | 1014.2 |
| 20260904234014 | 71 | 106 | 1.7 | 8.7 | 0.00 | 0.02 | 0.02 | 53 | 1014.2 |
| 20260904233510 | 71 | 252 | 3.5 | 8.7 | 0.00 | 0.02 | 0.02 | 53 | 1014.2 |
| 20260904233027 | 72 | 244 | 1.7 | 8.7 | 0.00 | 0.02 | 0.02 | 53 | 1014.1 |
| 20260904232513 | 72 | 252 | 3.5 | 6.1 | 0.00 | 0.02 | 0.02 | 52 | 1014.0 |
| 20260904232012 | 72 | 217 | 1.7 | 8.7 | 0.00 | 0.02 | 0.02 | 53 | 1014.0 |
| 20260904231537 | 73 | 287 | 3.5 | 8.7 | 0.00 | 0.02 | 0.02 | 52 | 1014.0 |
| 20260904231017 | 73 | 298 | 3.5 | 8.7 | 0.00 | 0.02 | 0.02 | 51 | 1014.1 |
| 20260904230518 | 73 | 192 | 1.7 | 7.8 | 0.00 | 0.02 | 0.02 | 51 | 1014.0 |
| 20260904230008 | 74 | 250 | 2.6 | 6.1 | 0.00 | 0.02 | 0.02 | 51 | 1014.0 |
| 20260904225506 | 74 | 273 | 1.7 | 7.0 | 0.00 | 0.02 | 0.02 | 52 | 1014.0 |
| 20260904225006 | 74 | 242 | 3.5 | 8.7 | 0.00 | 0.02 | 0.02 | 52 | 1013.9 |
| 20260904224523 | 74 | 333 | 2.6 | 8.7 | 0.00 | 0.02 | 0.02 | 54 | 1013.9 |
| 20260904224008 | 74 | 339 | 3.5 | 9.6 | 0.00 | 0.02 | 0.02 | 53 | 1013.9 |
| 20260904223513 | 74 | 288 | 5.2 | 9.6 | 0.00 | 0.02 | 0.02 | 52 | 1013.9 |
| 20260904223024 | 74 | 279 | 1.7 | 6.1 | 0.00 | 0.02 | 0.02 | 54 | 1013.8 |
| 20260904222510 | 74 | 284 | 2.6 | 8.7 | 0.00 | 0.02 | 0.02 | 52 | 1013.8 |
| 20260904222014 | 75 | 271 | 3.5 | 8.7 | 0.00 | 0.02 | 0.02 | 53 | 1013.8 |
| 20260904221530 | 75 | 284 | 3.5 | 10.4 | 0.00 | 0.02 | 0.02 | 53 | 1013.8 |
| 20260904221017 | 75 | 211 | 3.5 | 10.4 | 0.00 | 0.02 | 0.02 | 52 | 1013.8 |
| 20260904220516 | 74 | 221 | 1.7 | 7.8 | 0.00 | 0.02 | 0.02 | 53 | 1013.9 |
| 20260904220038 | 74 | 277 | 2.6 | 7.8 | 0.00 | 0.02 | 0.02 | 52 | 1013.8 |
| 20260904215517 | 74 | 179 | 1.7 | 6.1 | 0.00 | 0.02 | 0.02 | 54 | 1013.8 |
| 20260904215004 | 74 | 282 | 3.5 | 6.1 | 0.00 | 0.02 | 0.02 | 54 | 1013.9 |
| 20260904214514 | 73 | 148 | 2.6 | 7.0 | 0.00 | 0.02 | 0.02 | 52 | 1013.9 |
| 20260904214010 | 73 | 297 | 3.5 | 9.6 | 0.00 | 0.02 | 0.02 | 54 | 1013.9 |
| 20260904213507 | 74 | 184 | 3.5 | 9.6 | 0.00 | 0.02 | 0.02 | 55 | 1014.0 |
| 20260904213028 | 73 | 272 | 4.3 | 8.7 | 0.00 | 0.02 | 0.02 | 56 | 1014.0 |
| 20260904212513 | 73 | 254 | 3.5 | 8.7 | 0.00 | 0.02 | 0.02 | 55 | 1014.0 |
| 20260904212012 | 73 | 229 | 4.3 | 7.8 | 0.00 | 0.02 | 0.02 | 57 | 1013.9 |
| 20260904211528 | 73 | 265 | 3.5 | 9.6 | 0.00 | 0.02 | 0.02 | 56 | 1014.0 |
| 20260904211015 | 73 | 280 | 5.2 | 9.6 | 0.00 | 0.02 | 0.02 | 56 | 1014.0 |
| 20260904210516 | 73 | 250 | 1.7 | 7.0 | 0.00 | 0.02 | 0.02 | 58 | 1013.9 |
| 20260904210033 | 73 | 219 | 3.5 | 6.1 | 0.00 | 0.02 | 0.02 | 59 | 1014.0 |
| 20260904205518 | 73 | 251 | 2.6 | 6.1 | 0.00 | 0.02 | 0.02 | 54 | 1013.9 |
| 20260904205017 | 73 | 341 | 2.6 | 7.0 | 0.00 | 0.02 | 0.02 | 55 | 1013.9 |
| 20260904204535 | 73 | 67 | 0.9 | 8.7 | 0.00 | 0.02 | 0.02 | 52 | 1013.8 |
| 20260904204016 | 74 | 296 | 1.7 | 8.7 | 0.00 | 0.02 | 0.02 | 54 | 1013.8 |
| 20260904203510 | 73 | 298 | 2.6 | 7.0 | 0.00 | 0.02 | 0.02 | 54 | 1013.8 |
| 20260904203019 | 72 | 238 | 2.6 | 7.8 | 0.00 | 0.02 | 0.02 | 57 | 1013.8 |
| 20260904202512 | 71 | 313 | 1.7 | 7.8 | 0.00 | 0.02 | 0.02 | 62 | 1013.9 |
| 20260904202010 | 70 | 261 | 2.6 | 6.1 | 0.00 | 0.02 | 0.02 | 58 | 1014.0 |
| 20260904201525 | 70 | 215 | 1.7 | 6.1 | 0.00 | 0.02 | 0.02 | 61 | 1013.9 |
| 20260904201015 | 69 | 349 | 0.9 | 6.1 | 0.00 | 0.02 | 0.02 | 67 | 1013.9 |
| 20260904200515 | 68 | 254 | 1.7 | 6.1 | 0.00 | 0.02 | 0.02 | 66 | 1014.0 |
| 20260904200042 | 68 | 328 | 2.6 | 7.0 | 0.00 | 0.02 | 0.02 | 64 | 1014.0 |
| 20260904195519 | 68 | 207 | 0.9 | 7.0 | 0.00 | 0.02 | 0.02 | 65 | 1013.9 |
| 20260904195015 | 68 | 288 | 2.6 | 7.0 | 0.00 | 0.02 | 0.02 | 66 | 1013.9 |
| 20260904194535 | 68 | 280 | 2.6 | 6.1 | 0.00 | 0.02 | 0.02 | 65 | 1014.0 |
| 20260904194014 | 68 | 232 | 3.5 | 6.1 | 0.00 | 0.02 | 0.02 | 65 | 1014.1 |
| 20260904193520 | 67 | 317 | 0.9 | 3.5 | 0.00 | 0.02 | 0.02 | 70 | 1013.9 |
| 20260904193038 | 67 | 229 | 1.7 | 3.5 | 0.00 | 0.02 | 0.02 | 68 | 1014.1 |
| 20260904192508 | 66 | 281 | 0.9 | 1.7 | 0.00 | 0.02 | 0.02 | 70 | 1014.0 |
| 20260904192007 | 66 | 171 | 0.0 | 3.5 | 0.00 | 0.02 | 0.02 | 67 | 1014.0 |
| 20260904191536 | 66 | 215 | 1.7 | 4.3 | 0.00 | 0.02 | 0.02 | 68 | 1014.1 |
| 20260904191011 | 67 | 224 | 1.7 | 4.3 | 0.00 | 0.02 | 0.02 | 1014.1 | |
| 20260904190513 | 67 | 231 | 0.9 | 3.5 | 0.00 | 0.02 | 0.02 | 70 | 1014.1 |
| 20260904190028 | 67 | 226 | 0.9 | 2.6 | 0.00 | 0.02 | 0.02 | 70 | 1014.1 |
| 20260904185514 | 66 | 165 | 0.9 | 2.6 | 0.00 | 0.02 | 0.02 | 67 | 1014.1 |
| 20260904185014 | 65 | 31 | 0.0 | 4.3 | 0.00 | 0.02 | 0.02 | 70 | 1014.1 |
| 20260904184533 | 65 | 213 | 1.7 | 4.3 | 0.00 | 0.02 | 0.02 | 71 | 1014.3 |
| 20260904184017 | 65 | 208 | 1.7 | 4.3 | 0.00 | 0.02 | 0.02 | 70 | 1014.2 |
| 20260904183516 | 65 | 332 | 0.9 | 4.3 | 0.00 | 0.02 | 0.02 | 70 | 1014.2 |
| 20260904183038 | 65 | 263 | 1.7 | 3.5 | 0.00 | 0.02 | 0.02 | 69 | 1014.2 |
| 20260904182517 | 65 | 327 | 0.9 | 2.6 | 0.00 | 0.02 | 0.02 | 68 | 1014.2 |
| 20260904182021 | 66 | 325 | 1.7 | 3.5 | 0.00 | 0.02 | 0.02 | 68 | 1014.1 |
| 20260904181538 | 66 | 297 | 0.9 | 3.5 | 0.00 | 0.02 | 0.02 | 68 | 1014.1 |
| 20260904181009 | 66 | 260 | 1.7 | 3.5 | 0.00 | 0.02 | 0.02 | 68 | 1014.1 |
| 20260904180514 | 66 | 302 | 1.7 | 7.0 | 0.00 | 0.02 | 0.02 | 70 | 1014.0 |
| 20260904180030 | 66 | 5 | 2.6 | 7.0 | 0.00 | 0.02 | 0.02 | 70 | 1014.0 |
| 20260904175513 | 65 | 245 | 2.6 | 5.2 | 0.00 | 0.02 | 0.02 | 72 | 1013.9 |
| 20260904175016 | 64 | 234 | 1.7 | 3.5 | 0.00 | 0.02 | 0.02 | 71 | 1013.9 |
| 20260904174533 | 64 | 170 | 0.0 | 5.2 | 0.00 | 0.02 | 0.02 | 72 | 1013.9 |
| 20260904174016 | 63 | 180 | 2.6 | 5.2 | 0.00 | 0.02 | 0.02 | 73 | 1014.0 |
| 20260904173505 | 63 | 49 | 0.9 | 4.3 | 0.00 | 0.02 | 0.02 | 74 | 1014.0 |
| 20260904173012 | 62 | 202 | 0.9 | 5.2 | 0.00 | 0.02 | 0.02 | 76 | 1014.1 |
| 20260904172504 | 62 | 140 | 0.9 | 5.2 | 0.00 | 0.02 | 0.02 | 77 | 1014.1 |
| 20260904172011 | 61 | 70 | 0.0 | 2.6 | 0.00 | 0.02 | 0.02 | 78 | 1014.0 |
| 20260904171520 | 61 | 238 | 0.0 | 3.5 | 0.00 | 0.02 | 0.02 | 77 | 1014.0 |
| 20260904171008 | 61 | 55 | 2.6 | 3.5 | 0.00 | 0.02 | 0.02 | 78 | 1013.9 |
| 20260904170512 | 60 | 329 | 0.9 | 3.5 | 0.00 | 0.02 | 0.02 | 81 | 1013.9 |
| 20260904170026 | 60 | 15 | 0.0 | 2.6 | 0.00 | 0.02 | 0.02 | 81 | 1013.9 |
| 20260904165514 | 59 | 205 | 0.9 | 2.6 | 0.00 | 0.02 | 0.02 | 83 | 1013.9 |
| 20260904165014 | 59 | 166 | 0.0 | 2.6 | 0.00 | 0.02 | 0.02 | 83 | 1013.9 |
| 20260904164528 | 58 | 86 | 0.9 | 2.6 | 0.00 | 0.02 | 0.02 | 82 | 1014.0 |
| 20260904164006 | 58 | 127 | 0.9 | 3.5 | 0.00 | 0.02 | 0.02 | 84 | 1014.0 |
| 20260904163503 | 58 | 126 | 0.0 | 3.5 | 0.00 | 0.02 | 0.02 | 84 | 1014.0 |
| 20260904163012 | 58 | 134 | 0.9 | 2.6 | 0.00 | 0.02 | 0.02 | 84 | 1014.0 |
| 20260904162505 | 58 | 87 | 0.9 | 3.5 | 0.00 | 0.02 | 0.02 | 85 | 1014.0 |
| 20260904162006 | 57 | 123 | 0.9 | 3.5 | 0.00 | 0.02 | 0.02 | 86 | 1014.0 |
| 20260904161516 | 57 | 138 | 0.9 | 3.5 | 0.00 | 0.02 | 0.02 | 87 | 1014.1 |
| 20260904161008 | 56 | 107 | 0.9 | 3.5 | 0.00 | 0.02 | 0.02 | 87 | 1014.1 |
| 20260904160511 | 56 | 101 | 0.9 | 3.5 | 0.00 | 0.02 | 0.02 | 88 | 1014.1 |
| 20260904160025 | 56 | 97 | 0.9 | 1.7 | 0.00 | 0.02 | 0.02 | 91 | 1014.1 |
| 20260904155512 | 55 | 115 | 0.9 | 2.6 | 0.00 | 0.02 | 0.02 | 92 | 1014.0 |
| 20260904155013 | 55 | 64 | 1.7 | 2.6 | 0.00 | 0.02 | 0.02 | 92 | 1013.9 |
| 20260904154530 | 54 | 111 | 0.0 | 1.7 | 0.00 | 0.02 | 0.02 | 93 | 1013.9 |
| 20260904154017 | 54 | 70 | 0.0 | 2.6 | 0.00 | 0.02 | 0.02 | 93 | 1013.9 |
| 20260904153514 | 54 | 125 | 0.9 | 2.6 | 0.00 | 0.02 | 0.02 | 93 | 1014.0 |
| 20260904153018 | 54 | 18 | 0.0 | 1.7 | 0.00 | 0.02 | 0.02 | 93 | 1013.9 |
| 20260904152504 | 54 | 137 | 0.0 | 1.7 | 0.00 | 0.02 | 0.02 | 93 | 1013.9 |
| 20260904152009 | 54 | 81 | 0.0 | 1.7 | 0.00 | 0.02 | 0.02 | 93 | 1013.8 |
| 20260904151512 | 53 | 32 | 0.0 | 2.6 | 0.00 | 0.02 | 0.02 | 93 | 1013.8 |
| 20260904151011 | 53 | 26 | 0.9 | 2.6 | 0.00 | 0.02 | 0.02 | 93 | 1013.7 |
| 20260904150507 | 53 | 56 | 0.0 | 2.6 | 0.00 | 0.02 | 0.02 | 94 | 1013.7 |
| 20260904150025 | 53 | 22 | 0.9 | 1.7 | 0.00 | 0.02 | 0.02 | 93 | 1013.6 |
| 20260904145512 | 53 | 38 | 0.0 | 1.7 | 0.00 | 0.02 | 0.02 | 93 | 1013.6 |
| 20260904145011 | 53 | 17 | 0.0 | 1.7 | 0.00 | 0.02 | 0.02 | 93 | 1013.5 |
| 20260904144524 | 52 | 5 | 0.0 | 1.7 | 0.00 | 0.02 | 0.02 | 93 | 1013.5 |
| 20260904144016 | 52 | 58 | 0.0 | 1.7 | 0.00 | 0.02 | 0.02 | 93 | 1013.4 |
| 20260904143513 | 52 | 76 | 0.0 | 1.7 | 0.00 | 0.02 | 0.02 | 93 | 1013.3 |
| 20260904143033 | 52 | 56 | 0.0 | 2.6 | 0.00 | 0.02 | 0.02 | 93 | 1013.3 |
| 20260904142518 | 52 | 64 | 0.9 | 2.6 | 0.00 | 0.02 | 0.02 | 93 | 1013.3 |
| 20260904142016 | 52 | 86 | 0.9 | 1.7 | 0.00 | 0.02 | 0.02 | 93 | 1013.3 |
| 20260904141514 | 52 | 69 | 0.0 | 1.7 | 0.00 | 0.02 | 0.02 | 93 | 1013.3 |
| 20260904141003 | 52 | 61 | 0.9 | 1.7 | 0.00 | 0.02 | 0.02 | 92 | 1013.3 |
| 20260904140508 | 52 | 78 | 0.0 | 1.7 | 0.00 | 0.03 | 0.02 | 92 | 1013.3 |
| 20260904140029 | 53 | 86 | 0.0 | 1.7 | 0.00 | 0.03 | 0.02 | 92 | 1013.2 |
| 20260904135511 | 53 | 90 | 0.0 | 1.7 | 0.00 | 0.03 | 0.02 | 92 | 1013.1 |
| 20260904135012 | 53 | 82 | 0.0 | 1.7 | 0.00 | 0.03 | 0.02 | 92 | 1013.0 |
| 20260904134534 | 53 | 82 | 0.0 | 1.7 | 0.00 | 0.03 | 0.02 | 92 | 1012.9 |
| 20260904134015 | 53 | 78 | 0.0 | 1.7 | 0.00 | 0.03 | 0.02 | 92 | 1012.9 |
| 20260904133512 | 53 | 66 | 0.0 | 0.0 | 0.00 | 0.03 | 0.02 | 92 | 1012.9 |
| 20260904133026 | 53 | 66 | 0.0 | 1.7 | 0.00 | 0.03 | 0.02 | 92 | 1012.7 |
| 20260904132515 | 53 | 66 | 0.0 | 1.7 | 0.00 | 0.03 | 0.02 | 92 | 1012.7 |
| 20260904132016 | 53 | 66 | 0.0 | 1.7 | 0.00 | 0.03 | 0.02 | 92 | 1012.7 |
| 20260904131540 | 53 | 66 | 0.0 | 1.7 | 0.00 | 0.03 | 0.02 | 92 | 1012.6 |
| 20260904131015 | 53 | 70 | 0.0 | 1.7 | 0.00 | 0.03 | 0.02 | 92 | 1012.5 |
| 20260904130519 | 53 | 350 | 0.0 | 1.7 | 0.00 | 0.03 | 0.02 | 92 | 1012.5 |
| 20260904130014 | 53 | 346 | 0.0 | 1.7 | 0.00 | 0.03 | 0.02 | 92 | 1012.5 |
| 20260904125512 | 53 | 346 | 0.0 | 1.7 | 0.00 | 0.03 | 0.02 | 92 | 1012.5 |
| 20260904125008 | 53 | 334 | 0.9 | 1.7 | 0.00 | 0.03 | 0.02 | 92 | 1012.5 |
| 20260904124521 | 53 | 9 | 0.0 | 1.7 | 0.00 | 0.03 | 0.02 | 92 | 1012.4 |
| 20260904124011 | 53 | 73 | 0.0 | 1.7 | 0.00 | 0.03 | 0.02 | 92 | 1012.3 |
| 20260904123513 | 53 | 73 | 0.0 | 1.7 | 0.00 | 0.03 | 0.02 | 92 | 1012.3 |
| 20260904123027 | 53 | 73 | 0.0 | 1.7 | 0.00 | 0.03 | 0.02 | 92 | 1012.2 |
| 20260904122514 | 53 | 52 | 0.0 | 1.7 | 0.00 | 0.03 | 0.02 | 92 | 1012.3 |
| 20260904122016 | 53 | 5 | 0.0 | 1.7 | 0.00 | 0.03 | 0.02 | 92 | 1012.3 |
| 20260904121532 | 53 | 209 | 0.0 | 1.7 | 0.00 | 0.03 | 0.02 | 92 | 1012.1 |
| 20260904121015 | 53 | 209 | 0.0 | 1.7 | 0.00 | 0.03 | 0.02 | 92 | 1012.1 |
| 20260904120515 | 53 | 338 | 0.0 | 1.7 | 0.00 | 0.03 | 0.02 | 92 | 1012.1 |
| 20260904120034 | 53 | 338 | 0.0 | 0.0 | 0.00 | 0.03 | 0.02 | 92 | 1012.1 |
| 20260904115517 | 53 | 338 | 0.0 | 0.0 | 0.00 | 0.03 | 0.02 | 92 | 1012.0 |
| 20260904115010 | 53 | 338 | 0.0 | 1.7 | 0.00 | 0.03 | 0.02 | 92 | 1012.1 |
| 20260904114518 | 54 | 338 | 0.0 | 1.7 | 0.00 | 0.03 | 0.02 | 92 | 1012.1 |
| 20260904114008 | 54 | 352 | 0.9 | 1.7 | 0.00 | 0.03 | 0.02 | 92 | 1012.1 |
| 20260904113513 | 54 | 315 | 0.0 | 1.7 | 0.00 | 0.03 | 0.02 | 92 | 1012.0 |
| 20260904113036 | 54 | 315 | 0.0 | 1.7 | 0.00 | 0.03 | 0.02 | 92 | 1012.0 |
| 20260904112511 | 54 | 315 | 0.0 | 1.7 | 0.00 | 0.03 | 0.02 | 91 | 1011.9 |
| 20260904112012 | 54 | 317 | 0.0 | 1.7 | 0.00 | 0.03 | 0.02 | 91 | 1011.8 |
| 20260904111536 | 54 | 352 | 0.0 | 1.7 | 0.00 | 0.03 | 0.02 | 91 | 1011.8 |
| 20260904111014 | 54 | 352 | 0.0 | 1.7 | 0.00 | 0.03 | 0.02 | 91 | 1011.8 |
| 20260904110515 | 54 | 39 | 0.0 | 1.7 | 0.00 | 0.03 | 0.02 | 91 | 1011.7 |
| 20260904110036 | 54 | 38 | 0.0 | 1.7 | 0.00 | 0.03 | 0.02 | 92 | 1011.7 |
| 20260904105516 | 54 | 24 | 0.0 | 1.7 | 0.00 | 0.03 | 0.02 | 92 | 1011.7 |
| 20260904105016 | 54 | 42 | 0.0 | 1.7 | 0.00 | 0.03 | 0.02 | 91 | 1011.6 |
| 20260904104531 | 54 | 90 | 0.0 | 1.7 | 0.00 | 0.03 | 0.02 | 91 | 1011.6 |
| 20260904104019 | 54 | 90 | 0.0 | 1.7 | 0.00 | 0.03 | 0.02 | 91 | 1011.6 |
| 20260904103511 | 54 | 90 | 0.9 | 1.7 | 0.00 | 0.03 | 0.02 | 91 | 1011.7 |
| 20260904103024 | 54 | 30 | 0.0 | 1.7 | 0.00 | 0.03 | 0.02 | 91 | 1011.6 |
| 20260904102512 | 54 | 5 | 0.0 | 1.7 | 0.00 | 0.03 | 0.02 | 91 | 1011.5 |
| 20260904102014 | 54 | 5 | 0.0 | 1.7 | 0.00 | 0.03 | 0.02 | 91 | 1011.5 |
| 20260904101526 | 54 | 5 | 0.0 | 1.7 | 0.01 | 0.03 | 0.02 | 91 | 1011.5 |
| 20260904101020 | 54 | 5 | 0.0 | 1.7 | 0.01 | 0.03 | 0.02 | 90 | 1011.6 |
| 20260904100516 | 54 | 5 | 0.0 | 1.7 | 0.01 | 0.03 | 0.02 | 90 | 1011.4 |
| 20260904100030 | 54 | 5 | 0.0 | 1.7 | 0.01 | 0.03 | 0.02 | 90 | 1011.4 |
| 20260904095517 | 54 | 5 | 0.0 | 1.7 | 0.01 | 0.03 | 0.02 | 90 | 1011.3 |
| 20260904095018 | 55 | 5 | 0.0 | 0.9 | 0.01 | 0.03 | 0.02 | 90 | 1011.3 |
| 20260904094540 | 55 | 5 | 0.0 | 0.9 | 0.01 | 0.03 | 0.02 | 90 | 1011.3 |
| 20260904094019 | 55 | 5 | 0.0 | 1.7 | 0.01 | 0.03 | 0.02 | 89 | 1011.3 |
| 20260904093518 | 55 | 5 | 0.0 | 1.7 | 0.01 | 0.03 | 0.02 | 89 | 1011.4 |
| 20260904093033 | 55 | 5 | 0.0 | 0.0 | 0.01 | 0.03 | 0.02 | 89 | 1011.4 |
| 20260904092516 | 55 | 5 | 0.0 | 1.7 | 0.01 | 0.03 | 0.02 | 89 | 1011.3 |
| 20260904092014 | 55 | 5 | 0.0 | 1.7 | 0.01 | 0.03 | 0.02 | 89 | 1011.5 |
| 20260904091526 | 55 | 5 | 0.0 | 0.9 | 0.00 | 0.02 | 0.01 | 89 | 1011.6 |
| 20260904091012 | 55 | 12 | 0.0 | 1.7 | 0.00 | 0.02 | 0.01 | 89 | 1011.6 |
| 20260904090511 | 55 | 352 | 0.0 | 1.7 | 0.00 | 0.02 | 0.01 | 88 | 1011.6 |
| 20260904090032 | 55 | 302 | 0.0 | 1.7 | 0.01 | 0.02 | 0.01 | 88 | 1011.4 |
| 20260904085515 | 56 | 302 | 0.0 | 1.7 | 0.01 | 0.02 | 0.01 | 88 | 1011.4 |
| 20260904085014 | 56 | 302 | 0.0 | 1.7 | 0.01 | 0.02 | 0.01 | 88 | 1011.4 |
| 20260904084532 | 56 | 302 | 0.0 | 1.7 | 0.01 | 0.02 | 0.01 | 88 | 1011.5 |
| 20260904084017 | 56 | 302 | 0.0 | 1.7 | 0.01 | 0.03 | 0.01 | 88 | 1011.6 |
| 20260904083502 | 56 | 302 | 0.0 | 1.7 | 0.01 | 0.03 | 0.01 | 88 | 1011.6 |
| 20260904083004 | 56 | 303 | 0.0 | 1.7 | 0.01 | 0.03 | 0.01 | 88 | 1011.7 |
| 20260904082502 | 56 | 303 | 0.0 | 1.7 | 0.01 | 0.03 | 0.01 | 88 | 1011.8 |
| 20260904082006 | 56 | 303 | 0.0 | 1.7 | 0.01 | 0.03 | 0.01 | 87 | 1011.8 |
| 20260904081505 | 56 | 68 | 0.0 | 2.6 | 0.01 | 0.03 | 0.01 | 87 | 1011.8 |
| 20260904081004 | 56 | 36 | 0.9 | 2.6 | 0.01 | 0.03 | 0.01 | 87 | 1011.9 |
| 20260904080504 | 56 | 49 | 0.0 | 1.7 | 0.01 | 0.03 | 0.01 | 87 | 1011.8 |
| 20260904080003 | 56 | 39 | 0.0 | 0.0 | 0.00 | 0.02 | 0.00 | 86 | 1011.6 |
| 20260904075504 | 57 | 39 | 0.0 | 0.0 | 0.00 | 0.02 | 0.00 | 86 | 1011.7 |
| 20260904075003 | 57 | 39 | 0.0 | 1.7 | 0.00 | 0.02 | 0.00 | 85 | 1011.8 |
| 20260904074505 | 57 | 39 | 0.0 | 1.7 | 0.00 | 0.02 | 0.00 | 85 | 1011.9 |
| 20260904074003 | 57 | 39 | 0.0 | 1.7 | 0.00 | 0.02 | 0.00 | 85 | 1011.9 |
| 20260904073503 | 57 | 76 | 0.0 | 1.7 | 0.00 | 0.02 | 0.00 | 85 | 1011.8 |
| 20260904073005 | 57 | 86 | 0.0 | 1.7 | 0.00 | 0.02 | 0.00 | 85 | 1011.8 |
| 20260904072503 | 57 | 86 | 0.0 | 2.6 | 0.00 | 0.02 | 0.00 | 85 | 1011.8 |
| 20260904072003 | 57 | 86 | 0.0 | 3.5 | 0.00 | 0.02 | 0.00 | 85 | 1011.8 |
| 20260904071508 | 57 | 23 | 0.0 | 3.5 | 0.00 | 0.02 | 0.00 | 85 | 1011.8 |
| 20260904071004 | 57 | 117 | 0.0 | 2.6 | 0.00 | 0.02 | 0.00 | 85 | 1011.7 |
| 20260904070506 | 57 | 71 | 0.0 | 2.6 | 0.00 | 0.02 | 0.00 | 85 | 1011.8 |
| 20260904070007 | 57 | 96 | 0.0 | 3.5 | 0.00 | 0.02 | 0.00 | 85 | 1011.7 |
| 20260904065503 | 57 | 97 | 0.9 | 3.5 | 0.00 | 0.02 | 0.02 | 84 | 1011.8 |
| 20260904065003 | 57 | 82 | 0.9 | 1.7 | 0.00 | 0.02 | 0.02 | 84 | 1011.7 |
| 20260904064508 | 57 | 63 | 0.0 | 2.6 | 0.00 | 0.02 | 0.02 | 84 | 1011.7 |
| 20260904064007 | 57 | 72 | 0.0 | 2.6 | 0.00 | 0.02 | 0.02 | 84 | 1011.7 |
| 20260904063504 | 57 | 92 | 0.9 | 2.6 | 0.00 | 0.02 | 0.02 | 84 | 1011.7 |
| 20260904063005 | 57 | 57 | 0.9 | 2.6 | 0.00 | 0.02 | 0.02 | 84 | 1011.7 |
| 20260904062505 | 57 | 74 | 0.0 | 1.7 | 0.00 | 0.02 | 0.02 | 84 | 1011.6 |
| 20260904062004 | 57 | 67 | 0.0 | 2.6 | 0.00 | 0.02 | 0.02 | 83 | 1011.6 |
| 20260904061504 | 57 | 83 | 0.9 | 2.6 | 0.00 | 0.02 | 0.02 | 83 | 1011.6 |
| 20260904061006 | 57 | 94 | 0.9 | 2.6 | 0.00 | 0.02 | 0.02 | 83 | 1011.5 |
| 20260904060504 | 57 | 84 | 0.0 | 2.6 | 0.00 | 0.02 | 0.02 | 83 | 1011.5 |
| 20260904060013 | 57 | 84 | 0.0 | 2.6 | 0.00 | 0.02 | 0.02 | 83 | 1011.4 |
| 20260904055503 | 57 | 86 | 0.0 | 1.7 | 0.00 | 0.02 | 0.02 | 82 | 1011.4 |
| 20260904055003 | 57 | 75 | 0.0 | 1.7 | 0.00 | 0.02 | 0.02 | 81 | 1011.4 |
| 20260904054504 | 57 | 85 | 0.0 | 1.7 | 0.00 | 0.02 | 0.02 | 81 | 1011.4 |
| 20260904054003 | 57 | 57 | 0.0 | 1.7 | 0.00 | 0.02 | 0.02 | 80 | 1011.4 |
| 20260904053502 | 57 | 70 | 0.0 | 1.7 | 0.00 | 0.02 | 0.02 | 80 | 1011.3 |
| 20260904053010 | 57 | 46 | 0.0 | 1.7 | 0.00 | 0.02 | 0.02 | 79 | 1011.3 |
| 20260904052504 | 57 | 23 | 0.0 | 1.7 | 0.00 | 0.02 | 0.02 | 79 | 1011.3 |
| 20260904052006 | 58 | 13 | 0.0 | 1.7 | 0.00 | 0.02 | 0.02 | 79 | 1011.4 |
| 20260904051512 | 58 | 13 | 0.0 | 1.7 | 0.00 | 0.03 | 0.02 | 78 | 1011.4 |
| 20260904051003 | 58 | 13 | 0.0 | 0.9 | 0.00 | 0.03 | 0.02 | 78 | 1011.4 |
| 20260904050504 | 58 | 13 | 0.0 | 1.7 | 0.00 | 0.03 | 0.02 | 77 | 1011.4 |
| 20260904050017 | 58 | 13 | 0.0 | 1.7 | 0.00 | 0.03 | 0.02 | 78 | 1011.4 |
| 20260904045504 | 58 | 13 | 0.0 | 1.7 | 0.00 | 0.03 | 0.02 | 77 | 1011.5 |
| 20260904045004 | 58 | 13 | 0.0 | 1.7 | 0.00 | 0.03 | 0.02 | 78 | 1011.4 |
| 20260904044513 | 59 | 13 | 0.0 | 1.7 | 0.00 | 0.03 | 0.02 | 78 | 1011.4 |
| 20260904044005 | 59 | 32 | 0.0 | 1.7 | 0.00 | 0.03 | 0.02 | 77 | 1011.4 |
| 20260904043503 | 59 | 90 | 0.0 | 1.7 | 0.00 | 0.03 | 0.02 | 77 | 1011.3 |
| 20260904043017 | 59 | 115 | 0.0 | 0.0 | 0.00 | 0.03 | 0.02 | 77 | 1011.3 |
| 20260904042504 | 59 | 115 | 0.0 | 0.0 | 0.00 | 0.03 | 0.02 | 76 | 1011.3 |
| 20260904042004 | 59 | 115 | 0.0 | 1.7 | 0.00 | 0.03 | 0.02 | 77 | 1011.4 |
| 20260904041508 | 59 | 115 | 0.0 | 1.7 | 0.00 | 0.03 | 0.02 | 76 | 1011.4 |
| 20260904041003 | 59 | 115 | 0.0 | 1.7 | 0.00 | 0.03 | 0.02 | 76 | 1011.4 |
| 20260904040504 | 60 | 112 | 0.0 | 1.7 | 0.00 | 0.03 | 0.02 | 75 | 1011.4 |
| 20260904040008 | 60 | 128 | 0.0 | 1.7 | 0.00 | 0.03 | 0.02 | 75 | 1011.4 |
| 20260904035505 | 60 | 128 | 0.0 | 1.7 | 0.00 | 0.03 | 0.02 | 75 | 1011.3 |
| 20260904035004 | 60 | 121 | 0.0 | 1.7 | 0.00 | 0.03 | 0.02 | 74 | 1011.3 |
| 20260904034505 | 60 | 111 | 0.0 | 1.7 | 0.00 | 0.03 | 0.02 | 73 | 1011.3 |
| 20260904034004 | 61 | 109 | 0.0 | 1.7 | 0.00 | 0.03 | 0.02 | 73 | 1011.2 |
| 20260904033507 | 61 | 109 | 0.0 | 1.7 | 0.00 | 0.03 | 0.02 | 72 | 1011.2 |
| 20260904033019 | 61 | 52 | 0.0 | 1.7 | 0.00 | 0.03 | 0.02 | 71 | 1011.2 |
| 20260904032504 | 61 | 59 | 0.0 | 1.7 | 0.00 | 0.04 | 0.02 | 71 | 1011.0 |
| 20260904032003 | 62 | 68 | 0.9 | 1.7 | 0.00 | 0.04 | 0.02 | 70 | 1010.9 |
| 20260904031506 | 62 | 111 | 0.0 | 2.6 | 0.00 | 0.04 | 0.02 | 69 | 1010.8 |
| 20260904031004 | 62 | 97 | 0.9 | 2.6 | 0.00 | 0.04 | 0.02 | 68 | 1010.9 |
| 20260904030505 | 63 | 143 | 0.0 | 1.7 | 0.00 | 0.04 | 0.02 | 66 | 1010.8 |
| 20260904030010 | 63 | 143 | 0.0 | 1.7 | 0.00 | 0.04 | 0.02 | 64 | 1010.7 |
| 20260904025504 | 63 | 143 | 0.0 | 1.7 | 0.00 | 0.04 | 0.02 | 64 | 1010.6 |
| 20260904025004 | 63 | 156 | 0.0 | 0.9 | 0.00 | 0.04 | 0.02 | 63 | 1010.6 |
| 20260904024510 | 64 | 156 | 0.0 | 0.0 | 0.00 | 0.04 | 0.02 | 63 | 1010.4 |
| 20260904024009 | 64 | 156 | 0.0 | 0.9 | 0.00 | 0.04 | 0.02 | 62 | 1010.4 |
| 20260904023505 | 64 | 156 | 0.0 | 1.7 | 0.00 | 0.04 | 0.02 | 62 | 1010.4 |
| 20260904023007 | 64 | 156 | 0.0 | 1.7 | 0.00 | 0.04 | 0.02 | 61 | 1010.3 |
| 20260904022507 | 64 | 144 | 0.0 | 1.7 | 0.00 | 0.04 | 0.02 | 60 | 1010.3 |
| 20260904022008 | 64 | 146 | 0.0 | 1.7 | 0.00 | 0.04 | 0.02 | 61 | 1010.3 |
| 20260904021514 | 64 | 159 | 0.0 | 1.7 | 0.00 | 0.04 | 0.02 | 61 | 1010.2 |
| 20260904021004 | 64 | 153 | 0.0 | 1.7 | 0.00 | 0.05 | 0.02 | 61 | 1010.2 |
| 20260904020504 | 64 | 150 | 0.9 | 1.7 | 0.00 | 0.05 | 0.02 | 61 | 1010.2 |
| 20260904020012 | 64 | 144 | 0.9 | 1.7 | 0.00 | 0.05 | 0.02 | 61 | 1010.2 |
| 20260904015504 | 65 | 171 | 0.9 | 1.7 | 0.00 | 0.05 | 0.02 | 61 | 1010.2 |
| 20260904015004 | 65 | 180 | 0.9 | 1.7 | 0.00 | 0.05 | 0.02 | 61 | 1010.3 |
| 20260904014512 | 65 | 167 | 0.9 | 2.6 | 0.00 | 0.05 | 0.02 | 60 | 1010.3 |
| 20260904014004 | 65 | 166 | 0.9 | 2.6 | 0.00 | 0.05 | 0.02 | 60 | 1010.3 |
| 20260904013505 | 65 | 186 | 0.0 | 2.6 | 0.00 | 0.05 | 0.02 | 62 | 1010.3 |
| 20260904013012 | 64 | 128 | 0.0 | 1.7 | 0.00 | 0.05 | 0.02 | 62 | 1010.2 |
| 20260904012506 | 64 | 136 | 0.0 | 1.7 | 0.00 | 0.05 | 0.02 | 63 | 1010.2 |
| 20260904012007 | 64 | 110 | 0.9 | 1.7 | 0.00 | 0.05 | 0.02 | 62 | 1010.3 |
| 20260904011512 | 64 | 94 | 0.0 | 1.7 | 0.00 | 0.06 | 0.02 | 64 | 1010.2 |
| 20260904011008 | 64 | 74 | 0.9 | 2.6 | 0.00 | 0.06 | 0.02 | 63 | 1010.2 |
| 20260904010506 | 64 | 106 | 0.9 | 2.6 | 0.00 | 0.06 | 0.02 | 63 | 1010.2 |
| 20260904010014 | 64 | 138 | 0.9 | 1.7 | 0.00 | 0.06 | 0.02 | 64 | 1010.2 |
| 20260904005507 | 64 | 91 | 0.0 | 1.7 | 0.00 | 0.06 | 0.02 | 64 | 1010.3 |
| 20260904005004 | 64 | 80 | 0.0 | 1.7 | 0.00 | 0.06 | 0.02 | 64 | 1010.2 |